Weather observations for the past three days for
Currituck, Currituck County Airport
Imperial (Metric)
Date Time (edt) Wind (mph) Vis. (mi.) Weather Sky Cond. Temperature (ºF) Relative Humidity Wind Chill (°F) Heat Index (°F) Pressure Precipitation (in)
Air Dwpt 6 hour altimeter (in) sea level (mb) 1 hr 3 hr 6 hr
Max. Min.
25 14:35 W 6 1.00 Heavy Rain SCT004 OVC010 77.9 75.6 93% 80 30.13 0.0
25 14:15 SW 3 10.00 Light Rain SCT010 BKN015 OVC060 79.3 75.9 89% 84 30.12 0.0
25 13:55 Calm 10.00 Light Rain SCT018 BKN027 OVC047 79.7 75.7 94.3 35.8 88% 85 30.12 0.0
25 13:35 S 3 7.00 Light Rain BKN013 BKN020 OVC047 80.4 75.4 85% 86 30.13 0.0
25 13:15 W 3 10.00 Light Rain BKN013 BKN031 BKN085 80.4 75.6 85% 86 30.13 0.0
25 12:55 SW 6 10.00 Light Rain SCT009 BKN031 BKN050 79.7 75.6 87% 84 30.14 0.0
25 12:35 SW 5 10.00 Mostly Cloudy SCT007 BKN012 BKN021 78.8 75.7 90% 82 30.15 0.0
25 12:15 SW 5 10.00 Drizzle SCT009 BKN018 OVC065 78.4 75.7 91% 82 30.16 0.0
25 11:55 SW 6 10.00 Drizzle SCT010 BKN018 BKN065 78.4 75.6 91% 82 30.16 0.0
25 11:35 SW 7 10.00 Partly Cloudy SCT010 78.1 75.4 91% 81 30.17 0.0
25 11:15 SW 5 10.00 Fair CLR 77.2 75.2 94% 78 30.17 0.0
25 10:55 SW 5 10.00 Light Rain SCT055 SCT075 BKN085 76.8 75 94% 78 30.17 0.0
25 10:35 SW 7 5.00 Rain SCT050 SCT070 OVC095 77.5 75.2 93% 79 30.18 0.0
25 10:15 SW 5 10.00 Light Rain SCT009 SCT048 BKN070 78.4 75 89% 82 30.17 0.0
25 09:55 SW 6 10.00 Partly Cloudy SCT009 78.4 75.2 90% 82 30.17 0.0
25 09:35 SW 5 10.00 Partly Cloudy SCT005 77 75 94% 78 30.17 0.0
25 09:10 SW 3 10.00 Partly Cloudy SCT004 SCT090 SCT110 75.2 73.9 96% 73 30.17 0.0
25 08:55 Calm 10.00 Mostly Cloudy SCT047 SCT075 BKN110 74.5 73.4 96% 30.16 0.0
25 08:35 Calm 10.00 Light Rain SCT025 BKN070 OVC095 74.3 73 96% 30.16 0.0
25 08:15 S 3 5.00 Rain SCT026 SCT050 OVC095 74.3 72.9 95% 30.17 0.0
25 07:55 SW 3 7.00 Rain SCT050 SCT075 SCT085 74.3 72.5 94.3 35.8 94% 30.17 0.0
25 07:35 Calm 10.00 Light Rain SCT004 SCT050 SCT070 73.9 72.5 95% 30.16 0.0
25 07:15 Calm 10.00 Mostly Cloudy SCT004 SCT060 BKN110 73.9 72.7 96% 30.16 0.0
25 06:55 Calm 10.00 Light Rain SCT010 BKN060 OVC085 73.9 72.7 96% 30.16 0.0
25 06:35 W 6 7.00 Rain SCT007 BKN027 OVC050 74.5 73 95% 30.16 0.0
25 05:55 Calm 10.00 Overcast SCT036 BKN046 OVC100 74.5 72.9 95% 30.15 0.0
25 05:35 W 3 10.00 Mostly Cloudy SCT033 SCT039 BKN065 74.5 72.7 94% 30.15 0.0
25 05:15 W 5 7.00 Rain SCT012 BKN031 OVC042 74.8 72.9 94% 30.16 0.0
25 04:55 W 8 G 17 2.50 Heavy Rain BKN013 BKN019 OVC034 78.1 74.1 88% 81 30.16 0.0
25 04:35 SW 10 10.00 Overcast OVC013 79.9 76.5 89% 85 30.14 0.0
25 04:15 SW 12 10.00 Overcast BKN015 OVC020 79.9 76.5 89% 85 30.13 0.0
25 03:55 SW 12 10.00 Mostly Cloudy BKN013 BKN022 BKN028 79.7 76.5 90% 85 30.14 0.0
25 03:35 SW 9 10.00 Partly Cloudy SCT013 79.7 76.3 89% 85 30.14 0.0
25 03:15 SW 8 10.00 Partly Cloudy SCT013 79.7 76.3 89% 85 30.14 0.0
25 02:55 SW 10 10.00 Mostly Cloudy BKN013 79.9 76.3 89% 85 30.15 0.0
25 02:35 SW 10 G 18 10.00 Mostly Cloudy BKN015 80.1 76.3 88% 86 30.15 0.0
25 02:15 SW 12 G 17 10.00 Mostly Cloudy BKN015 BKN019 80.1 76.3 88% 86 30.15 0.0
25 01:55 SW 13 10.00 Mostly Cloudy SCT015 BKN021 80.2 76.3 94.3 35.8 88% 86 30.16 0.0
25 01:35 SW 14 G 20 10.00 Mostly Cloudy SCT015 BKN023 80.2 76.5 88% 86 30.16 0.0
25 01:15 SW 13 G 21 10.00 Partly Cloudy SCT040 SCT055 80.6 76.5 87% 87 30.16 0.0
25 00:55 SW 12 G 18 10.00 Mostly Cloudy BKN040 80.6 76.3 87% 87 30.16 0.0
25 00:35 SW 9 10.00 Fair CLR 80.6 76.1 86% 87 30.17 0.0
25 00:15 S 7 10.00 Fair CLR 80.6 76.1 86% 87 30.16 0.0
24 23:55 SW 9 10.00 Fair CLR 80.4 76.5 88% 86 30.17 0.0
24 23:35 SW 7 10.00 Partly Cloudy SCT036 80.2 76.8 89% 86 30.17 0.0
24 23:15 SW 7 10.00 Partly Cloudy SCT034 80.1 77 90% 86 30.16 0.0
24 22:55 SW 7 10.00 Partly Cloudy SCT034 79.9 76.6 90% 85 30.16 0.0
24 22:35 SW 7 10.00 Fair CLR 79.7 76.3 89% 85 30.17 0.0
24 22:15 SW 6 10.00 Fair CLR 79.7 75.6 87% 84 30.16 0.0
24 21:55 SW 6 10.00 Fair CLR 79.7 75 86% 84 30.16 0.0
24 21:35 SW 7 10.00 Fair CLR 79.9 74.1 83% 84 30.16 0.0
24 21:15 SW 6 10.00 Fair CLR 80.4 73.2 79% 85 30.15 0.0
24 20:55 SW 6 10.00 Partly Cloudy SCT065 SCT090 SCT120 80.8 72.9 77% 85 30.15 0.0
24 20:35 SW 12 G 21 10.00 Light Rain SCT025 SCT044 BKN055 82.6 72.9 73% 88 30.14 0.0
24 20:15 S 7 10.00 Overcast SCT025 BKN040 OVC050 84.2 74.8 74% 92 30.14 0.0
24 19:55 S 9 10.00 Mostly Cloudy SCT025 SCT030 BKN041 85.8 76.8 94.3 35.8 75% 97 30.13 0.0
24 19:35 Calm 10.00 Partly Cloudy SCT043 86.5 76.8 73% 98 30.12 0.0
24 19:15 SW 5 10.00 Fair CLR 86.4 76.5 72% 97 30.11 0.0
24 18:55 SW 6 10.00 Fair CLR 86.2 76.1 72% 96 30.11 0.0
24 18:35 SW 8 10.00 Fair CLR 86.4 75.6 70% 96 30.11 0.0
24 18:15 SW 6 10.00 Fair CLR 86.7 75 68% 96 30.11 0.0
24 17:55 SW 8 10.00 Fair CLR 86.9 74.5 67% 96 30.12 0.0
24 17:35 SW 13 G 17 10.00 Fair CLR 86 74.7 69% 95 30.12 0.0
24 17:15 S 8 G 18 10.00 Partly Cloudy SCT029 SCT036 86.5 74.8 68% 96 30.12 0.0
24 16:55 SW 12 G 18 10.00 Fair CLR 87.1 74.8 67% 96 30.12 0.0
24 16:35 SW 13 G 16 10.00 Fair CLR 87.6 75 66% 97 30.11 0.0
24 16:15 SW 7 G 10 10.00 Partly Cloudy SCT034 SCT043 87.3 74.8 67% 97 30.12 0.0
24 15:55 SW 7 10.00 Mostly Cloudy BKN032 BKN044 86.9 74.5 67% 96 30.12 0.0
24 15:35 SW 13 G 16 10.00 Partly Cloudy SCT032 87.3 74.1 65% 96 30.13 0.0
24 15:15 S 9 10.00 Partly Cloudy SCT032 86.7 74.3 67% 95 30.13 0.0
24 14:55 SW 7 10.00 Partly Cloudy SCT029 86.5 74.5 67% 95 30.14 0.0
24 14:35 SW 12 G 17 10.00 Partly Cloudy SCT031 86.4 73.8 66% 94 30.15 0.0
24 14:15 SW 10 10.00 Fair CLR 85.6 73.6 67% 93 30.15 0.0
24 13:55 SW 10 10.00 Fair CLR 85.5 73.4 94.3 35.8 67% 93 30.16 0.0
24 13:35 SW 8 10.00 Fair CLR 85.5 73.2 67% 93 30.16 0.0
24 13:15 SW 12 G 18 10.00 Partly Cloudy SCT027 85.8 73.6 67% 93 30.17 0.0
24 12:35 SW 6 10.00 Partly Cloudy SCT022 84.4 74.3 72% 92 30.17 0.0
24 12:15 SW 9 G 16 10.00 Partly Cloudy SCT022 84 74.5 73% 92 30.17 0.0
24 11:55 SW 9 10.00 Partly Cloudy SCT017 82.8 74.8 77% 90 30.17 0.0
24 11:35 SW 10 10.00 Partly Cloudy SCT017 82.4 75 78% 89 30.18 0.0
24 11:15 SW 8 10.00 Partly Cloudy SCT060 81.5 74.3 79% 87 30.18 0.0
24 10:55 SW 9 10.00 Partly Cloudy SCT060 82 74.7 78% 88 30.17 0.0
24 10:35 SW 8 10.00 Partly Cloudy SCT060 81.7 74.7 79% 88 30.17 0.0
24 10:15 SW 6 10.00 Fair CLR 80.8 74.3 81% 86 30.15 0.0
24 09:55 SW 8 10.00 Fair CLR 80.8 73.9 80% 86 30.14 0.0
24 09:35 SW 8 10.00 Fair CLR 81.3 74.7 80% 87 30.14 0.0
24 09:15 SW 9 10.00 Fair CLR 80.6 74.7 82% 86 30.13 0.0
24 08:55 SW 8 10.00 Fair CLR 79 74.5 86% 83 30.14 0.0
24 08:35 SW 8 10.00 Fair CLR 77.7 74.3 89% 80 30.14 0.0
24 08:15 S 6 10.00 Fair CLR 76.8 74.1 91% 78 30.14 0.0
24 07:55 S 5 10.00 Fair CLR 75.7 73.9 94.3 35.8 94% 75 30.14 0.0
24 07:35 SW 3 10.00 Fair CLR 74.8 73.2 95% 30.14 0.0
24 07:15 Calm 10.00 Fair CLR 74.5 72.9 95% 30.14 0.0
24 06:55 Calm 10.00 Fair CLR 74.3 72.7 95% 30.14 0.0
24 06:35 Calm 10.00 Light Drizzle CLR 74.3 72.7 95% 30.14 0.0
24 06:15 SW 5 10.00 Partly Cloudy SCT060 SCT095 74.5 72.9 95% 30.15 0.0
24 05:55 SW 7 10.00 Light Rain SCT050 SCT065 BKN090 74.8 73 94% 30.15 0.0
24 05:35 SW 8 10.00 Light Rain SCT060 BKN070 BKN085 75.2 73.4 94% 74 30.14 0.0
24 05:15 SW 5 10.00 Light Rain SCT011 SCT050 BKN100 75.7 73.9 94% 75 30.13 0.0
24 04:55 SW 6 10.00 Light Rain BKN013 BKN039 OVC100 76.1 74.1 94% 76 30.15 0.0
24 04:35 SW 9 10.00 Rain SCT013 BKN044 OVC060 76.1 74.5 95% 76 30.15 0.0
24 04:15 SW 5 10.00 Overcast SCT030 BKN038 OVC075 75.9 74.3 95% 75 30.14 0.0
24 03:55 W 3 10.00 Mostly Cloudy SCT049 SCT065 BKN095 75.6 73.9 95% 74 30.14 0.0
24 03:35 SW 3 10.00 Mostly Cloudy SCT060 BKN110 75.4 73.6 94% 74 30.13 0.0
24 03:15 SW 3 10.00 Mostly Cloudy SCT060 SCT075 BKN110 75 73.4 95% 73 30.12 0.0
24 02:55 Calm 10.00 Overcast SCT060 BKN070 OVC095 74.7 73.2 95% 30.12 0.0
24 02:35 Calm 10.00 Mostly Cloudy SCT080 BKN095 74.3 72.9 95% 30.12 0.0
24 02:15 SW 3 10.00 Light Drizzle SCT055 SCT080 74.1 72.5 95% 30.12 0.0
24 01:50 SW 5 10.00 Light Drizzle SCT110 73.9 72 94.3 35.8 94% 30.12 0.0
24 01:35 SW 6 10.00 Light Rain SCT065 SCT075 BKN110 73.9 71.6 92% 30.12 0.0
24 01:15 SW 12 10.00 Light Rain SCT065 BKN075 OVC100 74.7 71.1 89% 30.14 0.0
24 00:55 SW 9 10.00 Drizzle SCT022 SCT043 BKN100 77.2 71.2 82% 79 30.14 0.0
24 00:35 SW 13 G 29 10.00 Light Rain SCT019 SCT025 BKN050 80.2 75.6 86% 86 30.13 0.0
24 00:15 SW 8 10.00 Light Rain SCT070 80.6 76.6 88% 87 30.13 0.0
23 23:55 S 6 10.00 Fair CLR 80.6 77 89% 87 30.12 0.0
23 23:35 S 7 10.00 Fair CLR 80.2 77.2 90% 86 30.13 0.0
23 23:15 Calm 10.00 Fair CLR 79.7 77.4 93% 85 30.13 0.0
23 22:55 Calm 10.00 Fair CLR 79.7 77.5 93% 85 30.13 0.0
23 22:35 Calm 10.00 Fair CLR 78.4 76.6 94% 82 30.13 0.0
23 22:15 Calm 10.00 Partly Cloudy SCT018 78.1 76.3 94% 81 30.13 0.0
23 21:55 Calm 10.00 Partly Cloudy SCT018 SCT025 78.1 75.9 93% 81 30.11 0.0
23 21:35 Calm 10.00 Partly Cloudy SCT016 SCT024 78.3 75.7 92% 81 30.11 0.0
23 21:15 Calm 10.00 Partly Cloudy SCT016 78.6 75.9 91% 82 30.11 0.0
23 20:55 Calm 10.00 Mostly Cloudy BKN016 78.6 75.9 91% 82 30.1 0.0
23 20:35 N 3 10.00 Fair CLR 80.1 77.2 91% 86 30.1 0.0
23 20:15 Calm 10.00 Fair CLR 81.9 77.9 88% 90 30.1 0.0
23 19:55 Calm 10.00 Fair CLR 82 77.7 94.3 35.8 87% 91 30.1 0.0
23 19:35 Calm 10.00 Fair CLR 82.4 77.4 85% 91 30.09 0.0
23 19:15 Calm 10.00 Fair CLR 82.9 76.8 82% 92 30.09 0.0
23 18:55 Calm 10.00 Fair CLR 83.3 76.6 80% 92 30.09 0.0
23 18:30 S 3 10.00 Fair CLR 83.7 76.8 80% 93 30.09 0.0
23 18:15 S 3 10.00 Partly Cloudy SCT019 SCT028 SCT110 83.8 77.2 80% 94 30.09 0.0
23 17:55 S 3 10.00 Partly Cloudy SCT019 83.7 77 80% 93 30.08 0.0
23 17:35 Calm 10.00 Fair CLR 82.6 76.5 82% 91 30.07 0.0
23 17:15 Calm 10.00 Fair CLR 82 75.6 81% 89 30.07 0.0
23 16:55 S 3 10.00 Fair CLR 81.9 75.4 81% 89 30.07 0.0
23 16:35 S 3 10.00 Partly Cloudy SCT050 SCT070 SCT090 80.2 74.7 83% 85 30.09 0.0
23 16:15 Calm 10.00 Light Rain SCT027 SCT043 BKN055 79.3 74.3 85% 83 30.09 0.0
23 15:55 W 3 10.00 Light Rain SCT029 BKN041 OVC120 81.7 73.2 76% 87 30.1 0.0
23 15:35 S 8 10.00 Overcast SCT029 BKN037 OVC060 84.2 73.6 71% 91 30.1 0.0
23 15:15 S 12 G 18 10.00 Mostly Cloudy SCT028 BKN037 BKN049 87.3 74.5 66% 96 30.09 0.0
23 14:55 S 10 G 16 10.00 Mostly Cloudy BKN030 BKN037 87.6 77.2 71% 100 30.07 0.0
23 14:35 Calm 10.00 Overcast BKN032 BKN048 OVC055 87.3 76.5 70% 98 30.08 0.0
23 14:15 SW 5 10.00 Mostly Cloudy SCT034 BKN044 BKN055 88.3 76.1 67% 100 30.08 0.0
23 13:55 SW 9 10.00 Mostly Cloudy SCT031 SCT038 BKN044 88.3 76.1 94.3 35.8 67% 100 30.09 0.0
23 13:35 S 7 10.00 Mostly Cloudy SCT029 SCT035 BKN042 88.2 76.5 68% 100 30.09 0.0
23 13:15 SW 6 10.00 Partly Cloudy SCT031 87.8 76.3 69% 99 30.1 0.0
23 12:55 SW 9 10.00 Mostly Cloudy BKN029 BKN033 87.3 76.3 70% 98 30.11 0.0
23 12:35 SW 6 10.00 Partly Cloudy SCT027 87.4 76.8 71% 99 30.11 0.0
23 12:15 SW 9 10.00 Partly Cloudy SCT027 SCT047 SCT060 86.9 75.9 70% 97 30.1 0.0
23 11:55 SW 9 10.00 Mostly Cloudy SCT021 SCT027 BKN048 86.4 76.5 72% 97 30.11 0.0
23 11:35 SW 6 10.00 Mostly Cloudy BKN021 BKN027 BKN036 85.6 76.5 74% 96 30.11 0.0
23 11:15 SW 8 10.00 Partly Cloudy SCT019 SCT026 85.1 75.9 74% 95 30.1 0.0
23 10:55 W 7 10.00 Overcast BKN019 OVC028 84.6 76.1 76% 94 30.11 0.0
23 10:35 SW 8 10.00 Mostly Cloudy BKN017 BKN024 84.2 76.1 77% 93 30.11 0.0
23 10:15 SW 10 10.00 Mostly Cloudy BKN017 83.3 76.6 80% 92 30.11 0.0
23 09:55 W 7 10.00 Mostly Cloudy BKN017 BKN021 82.9 76.5 81% 91 30.11 0.0
23 09:35 SW 8 10.00 Partly Cloudy SCT015 82 76.3 83% 90 30.1 0.0
23 09:15 SW 8 10.00 Mostly Cloudy BKN013 81.5 76.1 84% 88 30.11 0.0
23 08:55 SW 8 10.00 Partly Cloudy SCT011 81.1 76.6 86% 88 30.1 0.0
23 08:35 SW 8 10.00 Partly Cloudy SCT011 80.4 76.3 87% 86 30.1 0.0
23 08:15 SW 8 10.00 Partly Cloudy SCT011 80.6 76.6 88% 87 30.1 0.0
23 07:55 SW 9 7.00 Fair CLR 79.7 76.5 94.3 35.8 90% 85 30.09 0.0
23 07:35 SW 8 10.00 Fair CLR 79 76.5 92% 83 30.09 0.0
23 07:15 SW 6 7.00 Fair CLR 78.3 76.3 94% 81 30.08 0.0
23 06:55 SW 8 7.00 Partly Cloudy SCT011 SCT020 78.3 76.3 94% 81 30.08 0.0
23 06:35 SW 6 10.00 Mostly Cloudy BKN011 BKN020 78.1 76.3 94% 81 30.07 0.0
23 06:15 SW 5 10.00 Mostly Cloudy BKN011 BKN018 78.1 76.3 94% 81 30.07 0.0
23 05:55 SW 5 10.00 Mostly Cloudy BKN014 77.9 76.1 94% 80 30.06 0.0
23 05:35 SW 6 10.00 Fair CLR 77.9 76.1 94% 80 30.06 0.0
23 05:15 SW 6 10.00 Fair CLR 77.9 76.1 94% 80 30.05 0.0
23 04:55 SW 7 10.00 Fair CLR 77.9 76.1 94% 80 30.05 0.0
23 04:35 SW 6 10.00 Partly Cloudy SCT012 77.9 76.1 94% 80 30.04 0.0
23 04:15 SW 8 10.00 Mostly Cloudy BKN012 77.9 76.1 94% 80 30.05 0.0
23 03:55 SW 8 10.00 Mostly Cloudy BKN012 77.9 76.1 94% 80 30.05 0.0
23 03:35 SW 7 10.00 Partly Cloudy SCT010 77.9 76.1 94% 80 30.04 0.0
23 03:15 SW 7 10.00 Partly Cloudy SCT010 77.4 75.9 95% 79 30.04 0.0
23 02:55 SW 6 10.00 Fair CLR 76.8 75.4 95% 77 30.04 0.0
23 02:35 SW 7 10.00 Fair CLR 76.3 74.7 95% 76 30.03 0.0
23 02:15 S 5 10.00 Fair CLR 75.9 74.3 95% 75 30.03 0.0
23 01:55 SW 5 10.00 Fair CLR 75.7 73.9 94.3 35.8 94% 75 30.04 0.0
23 01:35 SW 7 10.00 Fair CLR 76.1 73.8 93% 76 30.04 0.0
23 00:55 SW 6 10.00 Light Drizzle SCT055 SCT075 SCT100 75 73.6 95% 73 30.04 0.0
23 00:35 SW 6 10.00 Light Rain SCT055 SCT070 OVC100 74.1 72.7 95% 30.04 0.0
23 00:15 S 5 10.00 Light Rain OVC100 73.4 71.8 95% 30.05 0.0
22 23:55 SW 6 10.00 Light Rain BKN100 73.4 71.6 94% 30.06 0.0
22 23:35 SW 5 10.00 Light Rain SCT075 SCT090 73.4 71.6 94% 30.05 0.0
22 23:15 SW 6 10.00 Light Rain OVC100 73.6 71.6 94% 30.05 0.0
22 22:55 SW 6 10.00 Rain BKN100 73.6 71.6 94% 30.05 0.0
22 22:35 SW 8 10.00 Light Rain SCT085 SCT110 73.8 71.6 93% 30.05 0.0
22 22:15 SW 9 10.00 Light Rain SCT015 SCT075 BKN095 74.7 71.6 90% 30.04 0.0
22 21:55 SW 20 G 30 5.00 Rain SCT013 BKN075 OVC100 78.3 74.5 88% 81 30.04 0.0
22 21:35 S 5 10.00 Rain SCT100 BKN120 79.7 75.6 87% 84 30.02 0.0
22 21:15 S 6 10.00 Light Rain SCT060 SCT075 SCT100 80.1 75.6 86% 85 30.01 0.0
22 20:55 S 7 10.00 Fair CLR 80.1 75.7 87% 85 30 0.0
22 20:35 S 5 10.00 Fair CLR 80.2 75.7 86% 86 30 0.0
22 20:15 S 6 10.00 Partly Cloudy SCT020 SCT027 80.4 75.9 86% 86 30 0.0
22 19:55 S 3 10.00 Mostly Cloudy BKN020 BKN027 80.2 76.8 94.3 35.8 89% 86 30 0.0
22 19:35 Calm 10.00 Mostly Cloudy SCT022 BKN027 BKN100 80.6 77 89% 87 30.01 0.0
22 19:15 SW 3 10.00 Mostly Cloudy SCT024 SCT045 BKN050 80.6 76.5 87% 87 30.01 0.0
22 18:55 S 6 10.00 Overcast SCT030 BKN039 OVC100 81.5 76.1 84% 88 30 0.0
22 18:35 S 5 10.00 Mostly Cloudy SCT026 BKN039 BKN050 81.5 76.3 84% 89 30 0.0
22 18:15 Calm 10.00 Partly Cloudy SCT029 SCT035 SCT090 81.7 76.3 84% 89 30 0.0
22 17:55 S 3 10.00 Partly Cloudy SCT028 82.2 76.3 82% 90 29.99 0.0
22 17:35 S 3 10.00 Light Drizzle SCT028 SCT120 82.8 76.1 80% 91 29.99 0.0
22 17:15 S 5 10.00 Mostly Cloudy BKN120 82.6 75.7 80% 90 29.99 0.0
22 16:55 S 3 10.00 Mostly Cloudy BKN120 82.4 75.6 80% 90 30 0.0
22 16:35 S 7 10.00 Fair CLR 82.6 75.4 79% 90 30 0.0
22 16:15 S 8 10.00 Partly Cloudy SCT022 SCT070 83.8 75 75% 92 30.01 0.0
22 15:55 S 13 G 17 10.00 Partly Cloudy SCT021 85.1 75.2 72% 94 30.01 0.0
22 15:35 S 13 G 16 10.00 Partly Cloudy SCT021 SCT120 84.2 75 74% 92 30.01 0.0
22 15:15 S 7 10.00 Partly Cloudy SCT021 83.8 74.7 74% 91 30.02 0.0
22 14:55 S 8 10.00 Fair CLR 83.5 74.1 74% 90 30.03 0.0
Date Time (edt) Wind (mph) Vis. (mi.) Weather Sky Cond. Air Dwpt Max. Min. Relative Humidity Wind Chill (°F) Heat Index (°F) altimeter (in) sea level (mb) 1 hr 3 hr 6 hr
6 hour
Temperature (ºF) Pressure Precipitation (in)